TimeCDT,TemperatureF,Dew PointF,Humidity,Sea Level PressureIn,VisibilityMPH,Wind Direction,Wind SpeedMPH,Gust SpeedMPH,PrecipitationIn,Events,Conditions,WindDirDegrees,DateUTC
12:14 AM,46.4,41.0,81,30.08,10.0,ENE,3.5,-,N/A,,Overcast,70,2013-06-07 05:14:00
12:33 AM,46.4,41.0,81,30.07,10.0,NE,3.5,-,N/A,,Overcast,50,2013-06-07 05:33:00
12:53 AM,46.4,41.0,81,30.07,10.0,Calm,Calm,-,N/A,,Overcast,0,2013-06-07 05:53:00
1:14 AM,46.4,41.0,81,30.07,10.0,Calm,Calm,-,N/A,,Overcast,0,2013-06-07 06:14:00
1:33 AM,46.4,41.0,81,30.06,10.0,Calm,Calm,-,N/A,,Overcast,0,2013-06-07 06:33:00
1:53 AM,46.4,41.0,81,30.06,10.0,Calm,Calm,-,N/A,,Overcast,0,2013-06-07 06:53:00
2:14 AM,46.4,42.8,87,30.05,10.0,Calm,Calm,-,N/A,,Overcast,0,2013-06-07 07:14:00
2:33 AM,46.4,42.8,87,30.05,10.0,Calm,Calm,-,N/A,,Mostly Cloudy,0,2013-06-07 07:33:00
2:53 AM,46.4,42.8,87,30.05,10.0,Calm,Calm,-,N/A,,Scattered Clouds,0,2013-06-07 07:53:00
3:14 AM,46.4,42.8,87,30.05,10.0,Calm,Calm,-,N/A,,Scattered Clouds,0,2013-06-07 08:14:00
3:34 AM,44.6,41.0,87,30.05,10.0,Calm,Calm,-,N/A,,Mostly Cloudy,0,2013-06-07 08:34:00
3:53 AM,46.4,41.0,81,30.05,10.0,Calm,Calm,-,N/A,,Overcast,0,2013-06-07 08:53:00
4:14 AM,46.4,42.8,87,30.05,10.0,Calm,Calm,-,N/A,,Overcast,0,2013-06-07 09:14:00
4:34 AM,46.4,42.8,87,30.05,10.0,Calm,Calm,-,N/A,,Overcast,0,2013-06-07 09:34:00
4:53 AM,46.4,42.8,87,30.05,10.0,Calm,Calm,-,N/A,,Overcast,0,2013-06-07 09:53:00
5:14 AM,46.4,42.8,87,30.05,10.0,Calm,Calm,-,N/A,,Overcast,0,2013-06-07 10:14:00
5:34 AM,48.2,44.6,87,30.05,10.0,Calm,Calm,-,N/A,,Overcast,0,2013-06-07 10:34:00
5:53 AM,46.4,44.6,93,30.06,10.0,Calm,Calm,-,N/A,,Overcast,0,2013-06-07 10:53:00
6:14 AM,46.4,44.6,93,30.06,10.0,Calm,Calm,-,N/A,,Overcast,0,2013-06-07 11:14:00
6:34 AM,48.2,44.6,87,30.07,10.0,Calm,Calm,-,N/A,,Overcast,0,2013-06-07 11:34:00
6:53 AM,48.2,44.6,87,30.07,10.0,Calm,Calm,-,N/A,,Overcast,0,2013-06-07 11:53:00
7:14 AM,48.2,44.6,87,30.07,10.0,Calm,Calm,-,N/A,,Overcast,0,2013-06-07 12:14:00
7:33 AM,48.2,44.6,87,30.08,10.0,Calm,Calm,-,N/A,,Overcast,0,2013-06-07 12:33:00
7:53 AM,48.2,44.6,87,30.08,10.0,Calm,Calm,-,N/A,,Overcast,0,2013-06-07 12:53:00
8:14 AM,46.4,44.6,93,30.08,10.0,Calm,Calm,-,N/A,,Overcast,0,2013-06-07 13:14:00
8:34 AM,48.2,42.8,82,30.08,10.0,Calm,Calm,-,N/A,,Overcast,0,2013-06-07 13:34:00
8:53 AM,48.2,42.8,82,30.08,10.0,Calm,Calm,-,N/A,,Overcast,0,2013-06-07 13:53:00
9:14 AM,50.0,42.8,76,30.08,10.0,Calm,Calm,-,N/A,,Overcast,0,2013-06-07 14:14:00
9:34 AM,50.0,44.6,82,30.08,10.0,Calm,Calm,-,N/A,,Overcast,0,2013-06-07 14:34:00
9:53 AM,50.0,42.8,76,30.07,10.0,Calm,Calm,-,N/A,,Mostly Cloudy,0,2013-06-07 14:53:00
10:14 AM,50.0,42.8,76,30.07,10.0,East,3.5,-,N/A,,Mostly Cloudy,100,2013-06-07 15:14:00
10:33 AM,51.8,44.6,76,30.07,10.0,East,3.5,-,N/A,,Overcast,100,2013-06-07 15:33:00
10:53 AM,51.8,42.8,71,30.07,10.0,East,5.8,-,N/A,,Overcast,100,2013-06-07 15:53:00
11:14 AM,51.8,42.8,71,30.06,10.0,East,4.6,-,N/A,,Overcast,100,2013-06-07 16:14:00
11:33 AM,51.8,42.8,71,30.06,10.0,East,3.5,-,N/A,,Overcast,90,2013-06-07 16:33:00
11:53 AM,51.8,42.8,71,30.06,10.0,East,4.6,-,N/A,,Mostly Cloudy,80,2013-06-07 16:53:00
12:14 PM,51.8,42.8,71,30.06,10.0,Calm,Calm,-,N/A,,Mostly Cloudy,0,2013-06-07 17:14:00
12:33 PM,50.0,42.8,76,30.06,10.0,NE,3.5,-,N/A,,Mostly Cloudy,50,2013-06-07 17:33:00
12:53 PM,50.0,42.8,76,30.05,10.0,Calm,Calm,-,N/A,,Mostly Cloudy,0,2013-06-07 17:53:00
1:14 PM,51.8,42.8,71,30.04,10.0,Calm,Calm,-,N/A,,Mostly Cloudy,0,2013-06-07 18:14:00
1:33 PM,51.8,42.8,71,30.03,10.0,Calm,Calm,-,N/A,,Mostly Cloudy,0,2013-06-07 18:33:00
1:53 PM,55.4,44.6,67,30.02,10.0,East,3.5,-,N/A,,Scattered Clouds,90,2013-06-07 18:53:00
2:14 PM,55.4,46.4,72,30.01,10.0,East,4.6,-,N/A,,Clear,80,2013-06-07 19:14:00
2:33 PM,55.4,44.6,67,30.01,10.0,East,5.8,-,N/A,,Clear,90,2013-06-07 19:33:00
2:53 PM,55.4,44.6,67,30.00,10.0,NE,3.5,-,N/A,,Clear,50,2013-06-07 19:53:00
3:14 PM,53.6,44.6,72,30.00,10.0,NNE,3.5,-,N/A,,Clear,30,2013-06-07 20:14:00
3:34 PM,53.6,44.6,72,30.00,10.0,ENE,3.5,-,N/A,,Clear,60,2013-06-07 20:34:00
3:53 PM,55.4,44.6,67,29.99,10.0,East,5.8,-,N/A,,Clear,80,2013-06-07 20:53:00
4:14 PM,53.6,44.6,72,29.99,10.0,East,4.6,-,N/A,,Scattered Clouds,80,2013-06-07 21:14:00
4:34 PM,55.4,44.6,67,29.99,10.0,East,5.8,-,N/A,,Mostly Cloudy,80,2013-06-07 21:34:00
4:53 PM,53.6,44.6,72,29.98,10.0,East,5.8,-,N/A,,Mostly Cloudy,80,2013-06-07 21:53:00
5:14 PM,53.6,44.6,72,29.98,10.0,ENE,4.6,-,N/A,,Overcast,70,2013-06-07 22:14:00
5:33 PM,51.8,44.6,76,29.98,10.0,NNE,3.5,-,N/A,,Overcast,20,2013-06-07 22:33:00
5:54 PM,51.8,44.6,76,29.97,10.0,NNE,3.5,-,N/A,,Overcast,30,2013-06-07 22:54:00
6:13 PM,51.8,44.6,76,29.97,10.0,Calm,Calm,-,N/A,,Overcast,0,2013-06-07 23:13:00
6:33 PM,51.8,42.8,71,29.97,10.0,Calm,Calm,-,N/A,,Overcast,0,2013-06-07 23:33:00
6:54 PM,51.8,42.8,71,29.97,10.0,Calm,Calm,-,N/A,,Overcast,0,2013-06-07 23:54:00
7:13 PM,51.8,42.8,71,29.97,10.0,NNE,3.5,-,N/A,,Overcast,20,2013-06-08 00:13:00
7:33 PM,51.8,42.8,71,29.97,10.0,North,4.6,-,N/A,,Overcast,360,2013-06-08 00:33:00
7:54 PM,51.8,42.8,71,29.96,10.0,North,6.9,-,N/A,,Overcast,350,2013-06-08 00:54:00
8:13 PM,51.8,42.8,71,29.97,10.0,NNW,6.9,-,N/A,,Overcast,340,2013-06-08 01:13:00
8:34 PM,51.8,42.8,71,29.97,10.0,North,8.1,-,N/A,,Mostly Cloudy,360,2013-06-08 01:34:00
8:54 PM,51.8,42.8,71,29.97,10.0,NNE,8.1,-,N/A,,Scattered Clouds,30,2013-06-08 01:54:00
9:13 PM,51.8,42.8,71,29.97,10.0,NNE,5.8,-,N/A,,Scattered Clouds,20,2013-06-08 02:13:00
9:34 PM,51.8,42.8,71,29.97,10.0,NNE,5.8,-,N/A,,Overcast,20,2013-06-08 02:34:00
9:54 PM,51.8,42.8,71,29.97,10.0,NNE,4.6,-,N/A,,Overcast,30,2013-06-08 02:54:00
10:13 PM,51.8,44.6,76,29.97,10.0,East,3.5,-,N/A,,Mostly Cloudy,90,2013-06-08 03:13:00
10:33 PM,51.8,42.8,71,29.97,10.0,ESE,3.5,-,N/A,,Mostly Cloudy,110,2013-06-08 03:33:00
10:54 PM,51.8,44.6,76,29.97,10.0,ESE,4.6,-,N/A,,Overcast,110,2013-06-08 03:54:00
11:13 PM,51.8,44.6,76,29.97,10.0,ESE,3.5,-,N/A,,Overcast,120,2013-06-08 04:13:00
11:33 PM,51.8,42.8,71,29.96,10.0,Calm,Calm,-,N/A,,Overcast,0,2013-06-08 04:33:00
11:53 PM,51.8,42.8,71,29.96,10.0,ESE,3.5,-,N/A,,Overcast,110,2013-06-08 04:53:00